STARLINK-5197, 54097

Orbit data source: Space-Track

STARLINK-5197, 54097 is a payload satellite owned by SpaceX/Seattle (US) in LEO that was launched on Thu, 20 Oct 2022 UTC via an FALCON 9 launch vehicle from the Air Force Eastern Test Range (AFETR). Payload-class satellites include a variety of spacecraft equipped with specific instruments for various scientific and technological missions. These include communications satellites like Starlink; space stations such as the ISS; scientific satellites like the Hubble; Earth observation satellites from companies like Planet Labs, Umbra, and HawkEye 360; GPS; miniature CubeSats for education and research; and military/defense satellites.

Loading next visibility...
Identifier
54097, 2022-136AY
Orbit
LEO
Country
Flag of USUS
Related business
Manufacturer
SpaceX/Seattle
Mission
Operational Commercial Communications
Bus & Motor
STARLINK, Unknown motor
Mass
305 kg wet, ~290 kg dry
Launch date (UTC)
2022-10-20 (3 years ago)
Launch vehicle
FALCON 9
Launch site
Air Force Eastern Test Range (AFETR)
Object type
Payload
Rocket body
Debris
Shape & HBR
Box + 1 Pan, 10.1 m
Radar Cross Section
13.562 m², Large (>1 m²)

Expand to show TLE details & history
Last TLE update: 9 hours ago

TLE from 9 hours ago
0 STARLINK-5197
1 54097U 22136AY  25303.91081956  .00000482  00000-0  48350-4 0  9999
2 54097  53.2152 171.6514 0001285  84.7194 275.3945 15.08837469167740
Epoch: 2025-10-30T21:51Z
TLE epoch observation values (Epoch: 2025-10-30T21:51:34.809Z)
Latitude
-0.00003°
Longitude
164.29352°
Altitude
540.565 km
Speed
7.593 km/s
True Right ascension
11h 26m 36s
True Declination
0° 00' 00"
Sunlit
Object was in daylight at epoch
Visualization orbit readout
Latitude
Unknown
Longitude
Unknown
Altitude
Unknown
Speed
Unknown
Apparent Right ascension
Unknown
Apparent Declination
Unknown
Sunlit
N/A
Visualization observer readout
Local Sidereal Time
02:31:10
Azimuth
Unknown
Elevation
Unknown
Doppler factor
Unknown
Orbital elements
Apogee altitude
540.885 km
Perigee altitude
539.107 km
Semi-major axis
6,918.133 km
Eccentricity
0.00013
Inclination
53.2152°
RAAN
171.6514°
Arg. of periapsis
84.7194°
True anomaly
275.37984°
Mean anomaly
275.3945°
Eccentric anomaly
275.38717°
Mean motion
3.7719 °/min
Orbital period
95.44 mins
BSTAR
0.00004835
Loading maneuver chart data...
Computing Atmospheric mass density...
Loading historical data...
Loading historical data...
Loading historical data...
Loading historical data...
Loading historical data...
Loading historical data...
Loading historical data...

Documentation

Showing up to 5 results
|